Location: B�rgermoos
(47.6500°N, 9.0667°E)
Time: 11:38:39
(UTC+00:00)

A-11 Canister half - All Passes

Search period start: 03 August 2021 00:00
Search period end: 13 August 2021 00:00
Orbit: 1527 x 1682 km, 47.3° (Epoch: 02 August)

Date Brightness Start Highest point End Pass type
(mag) Time Alt. Az. Time Alt. Az. Time Alt. Az.
03 Aug - 07:29:56 10° SE 07:33:44 13° ESE 07:37:32 10° E daylight
03 Aug - 09:27:26 10° SSW 09:36:44 43° SE 09:45:57 10° ENE daylight
03 Aug - 11:31:02 10° WSW 11:41:11 79° SSE 11:51:09 10° E daylight
03 Aug - 13:36:17 10° W 13:46:26 87° S 13:56:16 10° E daylight
03 Aug - 15:41:34 10° WNW 15:51:13 57° SSW 16:00:32 10° SE daylight
03 Aug - 17:47:56 10° W 17:54:37 21° SW 18:01:11 10° S daylight
04 Aug - 07:09:09 10° SE 07:12:10 12° ESE 07:15:12 10° ESE daylight
04 Aug - 09:05:54 10° SSW 09:15:06 41° SE 09:24:14 10° ENE daylight
04 Aug - 11:09:20 10° WSW 11:19:30 78° SSE 11:29:28 10° E daylight
04 Aug - 13:14:33 10° W 13:24:44 87° S 13:34:36 10° E daylight
04 Aug - 15:19:51 10° WNW 15:29:34 58° SSW 15:38:57 10° SE daylight
04 Aug - 17:26:04 10° W 17:33:03 22° SW 17:39:53 10° S daylight
05 Aug - 06:48:44 10° SE 06:50:37 11° ESE 06:52:30 10° ESE daylight
05 Aug - 08:44:22 10° SSW 08:53:28 40° SE 09:02:31 10° ENE daylight
05 Aug - 10:47:39 10° WSW 10:57:48 77° SSE 11:07:47 10° ENE daylight
05 Aug - 12:52:50 10° W 13:03:01 88° S 13:12:56 10° E daylight
05 Aug - 14:58:08 10° WNW 15:07:56 60° SSW 15:17:23 10° SE daylight
05 Aug - 17:04:14 10° W 17:11:28 24° SW 17:18:33 10° S daylight
06 Aug - 08:22:51 10° SSW 08:31:51 38° SE 08:40:48 10° ENE daylight
06 Aug - 10:25:59 10° WSW 10:36:07 75° SSE 10:46:07 10° ENE daylight
06 Aug - 12:31:08 10° W 12:41:20 88° S 12:51:16 10° E daylight
06 Aug - 14:36:26 10° WNW 14:46:16 62° SSW 14:55:48 10° SE daylight
06 Aug - 16:42:25 10° W 16:49:54 25° SW 16:57:13 10° S daylight
07 Aug - 08:01:20 10° SSW 08:10:13 36° SE 08:19:05 10° ENE daylight
07 Aug - 10:04:18 10° WSW 10:14:25 74° SSE 10:24:26 10° ENE daylight
07 Aug - 12:09:25 10° W 12:19:38 88° S 12:29:36 10° E daylight
07 Aug - 14:14:43 10° WNW 14:24:36 64° SSW 14:34:11 10° SE daylight
07 Aug - 16:20:36 10° W 16:28:18 27° SW 16:35:51 10° S daylight
08 Aug - 07:39:51 10° SSW 07:48:36 35° SE 07:57:20 10° ENE daylight
08 Aug - 09:42:38 10° WSW 09:52:45 72° SSE 10:02:45 10° ENE daylight
08 Aug - 11:47:42 10° W 11:57:55 89° S 12:07:55 10° E daylight
08 Aug - 13:53:00 10° WNW 14:02:58 66° SSW 14:12:35 10° SE daylight
08 Aug - 15:58:48 10° W 16:06:44 28° SW 16:14:27 10° S daylight
09 Aug - 07:18:22 10° SSW 07:26:59 33° SE 07:35:36 10° ENE daylight
09 Aug - 09:20:59 10° WSW 09:31:04 71° SSE 09:41:05 10° ENE daylight
09 Aug - 11:26:00 10° W 11:36:13 89° S 11:46:14 10° E daylight
09 Aug - 13:31:19 10° WNW 13:41:17 67° SSW 13:50:59 10° SE daylight
09 Aug - 15:37:02 10° WNW 15:45:08 29° SW 15:53:04 10° S daylight
10 Aug - 06:56:54 10° SSW 07:05:21 32° SE 07:13:51 10° ENE daylight
10 Aug - 08:59:19 10° SW 09:09:23 69° SSE 09:19:23 10° ENE daylight
10 Aug - 11:04:17 10° W 11:14:31 89° S 11:24:34 10° E daylight
10 Aug - 13:09:36 10° WNW 13:19:37 69° SSW 13:29:21 10° SE daylight
10 Aug - 15:15:14 10° WNW 15:23:32 31° SW 15:31:38 10° S daylight
11 Aug - 06:35:27 10° S 06:43:45 30° SE 06:52:05 10° ENE daylight
11 Aug - 08:37:40 10° SW 08:47:42 68° SSE 08:57:42 10° ENE daylight
11 Aug - 10:42:34 10° W 10:52:49 89° S 11:02:53 10° E daylight
11 Aug - 12:47:53 10° WNW 12:57:56 71° SSW 13:07:44 10° ESE daylight
11 Aug - 14:53:29 10° WNW 15:01:56 33° SW 15:10:12 10° SSE daylight
12 Aug - 06:14:01 10° S 06:22:09 29° SE 06:30:19 10° ENE daylight
12 Aug - 08:16:02 10° SW 08:26:01 66° SSE 08:36:01 10° ENE daylight
12 Aug - 10:20:52 10° W 10:31:06 89° S 10:41:12 10° E daylight
12 Aug - 12:26:11 10° WNW 12:36:16 72° SSW 12:46:07 10° ESE daylight
12 Aug - 14:31:42 10° WNW 14:40:20 34° SW 14:48:45 10° SSE daylight
